www.pogodaiklimat.ru

ПОГОДА в Tibooburra Airport

  • Прогноз погоды в Tibooburra Airport
  • Монитор погоды в Tibooburra Airport
  • Климат города

АРХИВ ПОГОДЫ в Tibooburra Airport

Время (UTC), дата Ветер
(напр.,м/с)
 
Видим.   Явления Облачность Т
(С)
Тd
(С)
f
(%)
Тe
(С)
Тes
(С)
Комфортность P
(гПа)
Po
(гПа)
Тmin
(С)
Tmax
(С)
R
(мм)
S
(см)
09 14.01 Ю 9 н/о н/о +31.8 +2.0 15 +29 +29 жарко 1008.4 988.6
10 14.01 Ю 8 н/о н/о +30.2 +1.6 16 +28 +28 жарко 1009.2 989.4
11 14.01 Ю 6 н/о н/о +28.9 +3.0 19 +27 +27 жарко 1010.1 990.3
12 14.01 Ю 8 н/о н/о +27.9 +3.6 21 +26 +26 жарко 1011.0 991.2
13 14.01 Ю 7 н/о н/о +26.5 +4.3 24 +25 +25 комфорт 1011.7 991.9 +35.9
14 14.01 Ю 7 н/о н/о +25.5 +5.7 28 +25 +25 комфорт 1011.7 991.9
15 14.01 Ю 6 н/о н/о +24.6 +5.9 30 +24 +24 комфорт 1011.6 991.8
16 14.01 Ю 7 н/о н/о +24.1 +5.9 31 +24 +24 комфорт 1011.4 991.6
17 14.01 Ю 7 н/о н/о +23.2 +6.1 33 +24 +24 комфорт 1011.1 991.3
18 14.01 Ю 7 н/о н/о +22.7 +6.0 34 +23 +23 комфорт 1011.6 991.8
19 14.01 Ю 6 н/о н/о +21.8 +6.1 36 +22 +22 комфорт 1012.3 992.4
20 14.01 ЮВ 6 н/о н/о +21.5 +5.8 36 +22 +22 комфорт 1013.0 993.1
21 14.01 ЮВ 7 н/о н/о +23.2 +5.6 32 +24 +24 комфорт 1013.6 993.7
22 14.01 ЮВ 9 н/о н/о +25.0 +5.7 29 +25 +25 комфорт 1013.8 993.9
23 14.01 ЮВ 8 н/о н/о +26.0 +5.6 27 +25 +25 комфорт 1013.6 993.7
00 15.01 ЮВ 8 н/о н/о +27.7 +4.7 23 +26 +26 жарко 1013.5 993.6
01 15.01 ЮВ 7 н/о н/о +29.5 +4.2 20 +28 +28 жарко 1013.1 993.2 +21.4
02 15.01 ЮВ 6 н/о н/о +30.6 +4.4 19 +29 +29 жарко 1012.6 992.7
03 15.01 ЮВ 6 н/о н/о +32.6 +1.7 14 +30 +30 жарко 1012.0 992.2
04 15.01 ЮВ 7 н/о н/о +33.8 +0.5 12 +30 +30 жарко 1011.4 991.6
05 15.01 ЮВ 7 н/о н/о +34.4 -1.6 10 +31 +31 жарко 1010.7 990.9
06 15.01 ЮВ 7 н/о н/о +35.1 -4.1 8 +31 +31 жарко 1009.8 990.0
07 15.01 ЮВ 8 н/о н/о +35.6 -5.5 7 +31 +31 жарко 1009.0 989.2
08 15.01 Ю 9 н/о н/о +34.9 -4.2 8 +31 +31 жарко 1008.8 989.0
09 15.01 ЮВ 9 н/о н/о +33.7 -5.1 8 +30 +30 жарко 1008.8 989.0
10 15.01 ЮВ 7 н/о н/о +32.2 -4.6 9 +28 +28 жарко 1009.4 989.6
11 15.01 ЮВ 6 н/о н/о +30.8 -3.0 11 +27 +27 жарко 1009.7 989.9
12 15.01 ЮВ 6 н/о н/о +30.2 -1.2 13 +27 +27 жарко 1010.4 990.6
13 15.01 ЮВ 6 н/о н/о +29.1 -2.1 13 +26 +26 жарко 1011.0 991.2 +36.5
14 15.01 ЮВ 5 н/о н/о +28.1 -0.9 15 +26 +26 жарко 1011.0 991.2
15 15.01 ЮВ 6 н/о н/о +27.4 -1.5 15 +25 +25 комфорт 1010.5 990.7
16 15.01 ЮВ 6 н/о н/о +26.6 -1.3 16 +24 +24 комфорт 1010.1 990.3
17 15.01 ЮВ 6 н/о н/о +26.3 -0.7 17 +24 +24 комфорт 1009.8 990.0
18 15.01 ЮВ 6 н/о н/о +25.3 -0.7 18 +24 +24 комфорт 1009.7 989.9
19 15.01 ЮВ 5 н/о н/о +24.3 -0.8 19 +23 +23 комфорт 1010.0 990.2
20 15.01 ЮВ 6 н/о н/о +24.2 -1.6 18 +23 +23 комфорт 1010.3 990.5
21 15.01 ЮВ 6 н/о н/о +26.4 -2.3 15 +24 +24 комфорт 1010.6 990.8
22 15.01 В 8 н/о н/о +28.7 -2.4 13 +26 +26 жарко 1011.0 991.2
23 15.01 В 7 н/о н/о +31.8 -3.5 10 +28 +28 жарко 1011.0 991.2
00 16.01 В 8 н/о н/о +33.8 -5.0 8 +30 +30 жарко 1010.4 990.6
01 16.01 В 7 н/о н/о +36.4 -4.9 7 +32 +32 жарко 1009.9 990.1 +24.1
02 16.01 В 4 н/о н/о +36.9 -6.5 6 +33 +33 жарко 1009.5 989.7
03 16.01 Ю 3 н/о н/о +37.8 -5.9 6 +33 +33 жарко 1008.8 989.0
04 16.01 В 3 н/о н/о +38.9 -7.5 5 +34 +34 очень
жарко
1008.3 988.5
05 16.01 В 4 н/о н/о +39.6 -7.0 5 +35 +35 очень
жарко
1007.7 987.9
06 16.01 В 5 н/о н/о +40.0 -6.7 5 +36 +36 очень
жарко
1007.0 987.3
07 16.01 Ю 6 н/о н/о +39.9 -9.7 4 +35 +35 очень
жарко
1006.6 986.9
08 16.01 В 4 н/о н/о +39.4 -7.2 5 +35 +35 очень
жарко
1006.6 986.9
09 16.01 В 3 н/о н/о +38.4 -7.8 5 +34 +34 очень
жарко
1007.0 987.3
10 16.01 В 4 н/о н/о +34.8 -8.0 6 +30 +30 жарко 1007.6 987.8
11 16.01 Ю 1 н/о н/о +32.9 -7.4 7 +29 +29 жарко 1008.0 988.2
12 16.01 ЮЗ 2 н/о н/о +32.1 -6.3 8 +28 +28 жарко 1008.4 988.6
13 16.01 ЮЗ 2 н/о н/о +31.5 -6.7 8 +27 +27 жарко 1008.3 988.5 +40.9
14 16.01 Ю 3 н/о н/о +29.2 -5.5 10 +26 +26 жарко 1007.7 987.9
15 16.01 ЮЗ 4 н/о н/о +29.9 -5.0 10 +26 +26 жарко 1007.2 987.4
16 16.01 ЮЗ 3 н/о н/о +28.6 -4.7 11 +25 +25 комфорт 1006.9 987.2

 

Местоположение метеостанции Tibooburra Airport (Новый Южный Уэльс, Австралия): широта -29.45 долгота 142.05 высота над уровнем моря 177 м.

В архиве по умолчанию представлена погода в Tibooburra Airport за последнюю неделю. Архивные данные за месяц целиком и за предыдущие месяцы, начиная с января 2011 года, Вы можете получить, выбрав интересующий диапазон дат из раскрывающегося списка и нажав кнопку "Ввод!".

Внимание! Время в таблицах - всемирное. Для получения местного времени необходимо прибавить поправку, которая в Tibooburra Airport равна 10 ч.

Ветер - указаны скорость ветра в м/с - средняя за 10 мин, порывы в срок и между сроками (в фигурных скобках) и направление, откуда дует ветер: С - северный, СВ - северо-восточный, В - восточный, ЮВ - юго-восточный, Ю - южный, ЮЗ - юго-западный, З - западный, СЗ - северо-западный.
Видимость - горизонтальная дальность видимости в метрах или километрах. При видимости от 1 до 10 км при отсутствии осадков обычно наблюдается дымка, при ухудшении видимости до 1 км и менее - туман. В сухую погоду видимость может ухудшаться дымом, пылью или мглою.
Явления - указаны атмосферные явления, наблюдавшиеся в срок или в последний час перед сроком; фигурными скобками обозначены явления, наблюдавшиеся между сроками (за 1-3 часа до срока); квадратными скобками обозначены град или гололедные отложения с указанием их диаметра в мм.
Облачность - указаны через наклонную черту общая и нижняя облачность в баллах и высота нижней границы облаков в метрах; квадратными скобками обозначены формы облаков: Ci - перистые, Cs - перисто-слоистые, Cc - перисто-кучевые, Ac - высококучевые, As - высокослоистые, Sc - слоисто-кучевые, Ns - слоисто-дождевые, Cu - кучевые, Cb - кучево-дождевые. Подробнее классификацию облаков см. в Атласе облаков (PDF).
T - Температура воздуха - температура, измеренная на высоте 2 м над землей.
Td - Температура точки росы - температура, при понижении до которой содержащийся в воздухе водяной пар достигнет насыщения.
f - Относительная влажность воздуха - влажноcть воздуха, измеренная на высоте 2 м над землей.
Te - Эффективная температура - температура, которую ощущает одетый по сезону человек в тени. Характеристика душности погоды. При расчете учитывается влияние влажности воздуха и скорости ветра на теплоощущения человека.
Tes - Эффективная температура на солнце - температура, которую ощущает человек, с поправкой на солнечный нагрев. Характеристика знойности погоды. Зависит от высоты солнца над горизонтом, облачности и скорости ветра. Ночью, в пасмурную погоду, а также при ветре 12 м/с и более поправка равна нулю.
P - Атмосферное давление - приведенное к уровню моря атмосферное давление.
Po - Атмосферное давление - измеренное на уровне метеостанции атмосферное давление.
Tmin - Минимальная температура - минимум температуры воздуха на высоте 2 м над землей.
Tmax - Максимальная температура - максимум температуры воздуха на высоте 2 м над землей.
R - Количество осадков - Количество выпавших осадков, мм. При наведении курсора мыши на число - период времени, за который выпало указанное количество осадков.
S - Снежный покров - Высота снежного покрова, см. При наведении курсора мыши на число - состояние снежного покрова и степень покрытия местности в баллах.